Location: Rounton
(54.4000°N, 1.3500°W)
Time: 00:09:58
(UTC+01:00)

Vanguard 3 - Pass Details

Date: 28 April 2024
Orbit: 509 x 3233 km, 33.3° (Epoch: 18 May)

Event Time Altitude Azimuth Distance (km) Brightness Sun altitude
Exits shadow 00:35:48 14° 138° (SE) 5,521 10.9 -21.1°
Drops below altitude 10° 00:41:14 10° 119° (ESE) 5,540 11.1 -21.2°
Sets 00:48:08 0° 97° (E) 6,036 11.5 -21.3°
